Temperature
24 24 24 24 24 24 23 23 22 23 23 24 24 24 24 23 24 23 23 22 21 21 20 20 20 19 19 19 18 18 18 18 17 17 17 17 17 17 16 16 16 16 16 16
23 24 24 24 24 24 24 24 24 23 23 25 24 24 24 23 23 23 23 22 21 21 20 20 20 19 19 19 19 18 18 18 18 17 17 17 17 17 17 16 16 16 16 16
22 24 24 23 24 24 24 24 24 23 24 25 24 24 24 23 23 22 22 22 21 21 21 20 20 20 19 19 19 18 18 18 18 17 17 17 17 17 17 16 16 16 16 16
22 22 21 23 25 25 24 24 25 25 25 25 24 24 23 23 22 22 22 21 21 21 21 20 20 20 19 19 19 18 18 18 18 18 17 17 17 17 17 16 16 16 16 16
22 21 22 24 24 25 24 24 25 25 25 24 24 23 23 22 22 22 21 21 21 21 21 20 20 20 20 19 19 18 18 18 18 18 17 17 17 17 16 16 16 16 16 16
21 21 21 23 25 25 24 23 24 25 24 24 24 22 22 22 22 21 21 21 21 20 20 20 20 20 20 19 19 18 18 18 18 18 17 17 17 17 16 16 16 16 16 15
21 21 22 23 24 24 23 23 24 24 24 24 24 23 22 21 21 21 20 20 20 20 20 20 20 20 19 19 19 18 18 18 18 17 17 17 17 16 16 16 16 15 15 15
21 21 21 23 23 23 23 24 24 24 23 23 22 22 21 21 20 20 20 19 19 19 19 19 19 19 19 19 18 18 18 18 17 17 17 17 16 16 16 16 16 15 15 15
22 22 23 23 23 23 23 23 23 23 23 22 22 21 21 20 20 19 19 19 19 19 19 18 18 19 18 18 18 18 18 17 17 17 16 16 16 16 15 15 15 15 15 15
22 22 23 23 23 23 22 22 22 22 22 21 21 21 20 20 19 19 18 18 18 18 18 18 18 18 18 18 17 17 17 17 16 16 16 16 15 15 15 15 15 15 15 15
22 22 22 22 22 22 22 22 21 21 21 21 21 20 20 19 19 18 18 18 18 18 18 18 17 17 17 17 17 17 17 16 16 16 15 15 15 15 15 15 14 14 14 14
21 22 22 21 21 21 21 21 21 21 20 20 20 20 19 19 18 18 17 17 17 17 17 17 17 17 17 17 17 17 16 16 15 15 15 15 15 14 14 14 14 14 14 13
21 21 21 21 21 21 20 20 20 20 20 19 19 19 19 18 18 17 17 17 17 17 17 17 16 16 16 16 16 16 16 15 15 15 15 14 14 14 14 14 14 13 13 13
21 21 20 20 20 20 20 20 19 19 19 19 18 18 18 18 17 17 16 16 16 16 16 16 16 16 16 16 16 15 15 15 15 14 14 14 14 14 13 13 13 13 13 13
20 20 20 20 19 19 19 19 19 19 18 18 18 18 17 17 17 16 16 16 16 16 16 16 16 15 15 15 15 15 15 14 14 14 14 13 13 13 13 12 12 12 12 12
19 19 19 19 19 19 19 18 18 18 18 17 17 17 17 16 16 16 16 16 15 15 15 15 15 15 15 15 14 14 14 14 14 13 13 13 12 12 12 12 12 12 11 11
18 18 18 18 18 18 18 18 17 17 17 17 16 16 16 16 15 15 15 15 15 15 14 14 14 14 14 14 14 13 13 13 13 13 12 12 12 12 11 11 11 11 11 11
17 18 18 18 17 17 17 17 17 16 16 16 16 16 15 15 15 14 14 14 14 14 13 13 13 13 13 13 13 13 13 12 12 12 11 11 11 11 11 10 10 10 10 10
16 16 17 16 16 16 16 16 16 16 15 15 15 15 15 14 14 14 13 13 13 13 12 13 12 12 12 12 12 12 12 11 11 11 11 10 10 10 10 10 10 9 9 9
15 15 16 15 15 15 15 15 15 15 15 15 15 14 14 13 13 13 13 12 12 12 12 12 12 12 11 11 11 11 11 11 10 10 10 10 9 9 9 9 9 8 8 8
14 14 14 14 14 15 15 15 14 14 14 14 14 13 13 12 12 12 12 11 11 11 11 11 11 11 11 11 10 10 10 10 9 9 9 9 8 8 8 8 8 7 7 7
13 14 14 14 14 14 14 14 14 13 13 13 13 12 12 12 11 11 11 11 10 10 10 10 10 10 10 10 10 9 9 9 9 8 8 8 8 7 7 7 7 6 6 6
13 13 13 13 13 13 13 13 13 13 13 12 12 12 11 11 11 11 10 10 10 10 10 9 9 9 9 9 9 8 8 8 8 7 7 7 7 6 6 6 6 5 5 5
12 12 12 12 12 12 12 12 12 12 12 11 11 11 11 10 10 10 10 10 9 9 9 9 8 8 8 8 8 8 7 7 7 7 6 6 6 6 5 5 5 5 5 4
11 11 11 12 11 11 11 11 11 11 10 10 10 10 9 10 10 9 9 9 8 8 8 8 8 7 7 7 7 7 6 6 6 6 6 5 5 5 5 4 4 4 4 3
10 10 10 10 10 10 10 10 10 9 9 9 9 9 9 8 8 8 8 8 7 7 7 7 7 6 6 6 6 6 6 5 5 5 5 5 4 4 4 4 3 3 3 3
10 9 10 9 9 9 9 9 9 9 8 8 8 8 8 7 7 7 7 7 6 6 6 6 6 6 6 5 5 5 5 5 4 4 4 4 3 3 3 3 3 2 2 2
Wind_Speed
7 4 4 6 7 8 8 6 5 3 2 1 2 2 4 4 4 7 9 9 9 9 9 9 9 9 9 9 9 9 9 8 7 6 7 6 6 5 4 4 4 4 4 4
8 6 6 7 7 8 8 6 5 4 3 1 1 1 3 4 5 6 7 7 8 9 9 9 10 10 9 9 9 9 9 8 7 6 7 7 6 5 5 4 3 4 4 4
6 6 6 7 7 8 7 6 5 5 2 2 2 2 3 4 4 5 5 6 6 8 8 8 8 9 9 9 9 9 9 8 8 7 7 7 7 6 6 5 4 4 4 5
5 5 7 4 3 4 5 6 5 3 2 2 2 4 4 4 4 4 5 5 5 5 7 7 8 9 9 9 9 9 9 8 8 8 7 7 6 6 6 5 5 4 4 5
4 5 5 4 2 3 4 4 4 4 3 3 4 4 3 4 4 5 5 4 4 5 5 6 6 7 9 9 9 9 8 8 8 8 8 8 7 7 5 5 5 5 4 5
5 4 4 2 3 3 3 3 1 2 3 4 5 3 2 4 5 5 5 4 3 4 4 4 5 6 7 7 8 8 8 8 8 8 8 8 7 6 5 5 5 5 5 5
8 6 4 1 1 3 4 1 1 1 1 2 3 4 5 6 6 6 5 5 5 5 4 3 4 5 5 5 5 6 7 7 8 8 8 7 6 5 5 5 5 5 5 5
8 7 4 2 2 2 1 2 3 3 3 4 6 7 7 7 7 6 6 5 6 6 4 4 3 4 4 3 3 5 6 6 7 7 7 7 7 6 6 6 6 5 4 4
4 2 3 3 1 1 1 2 4 4 4 5 7 8 7 7 7 6 6 5 5 5 5 4 4 4 4 3 4 5 6 6 6 6 5 6 6 6 5 4 4 4 4 4
4 4 3 2 2 3 3 3 3 4 4 5 5 7 7 6 6 6 5 5 5 5 5 4 4 4 4 3 4 6 6 6 5 5 5 5 4 4 4 4 4 4 3 3
5 4 3 2 2 3 3 3 4 4 4 4 5 6 6 6 5 5 5 5 5 4 4 4 4 4 4 3 3 5 5 5 5 4 5 4 4 3 4 3 4 4 3 3
4 4 3 3 4 4 4 3 4 5 5 5 5 6 6 6 6 5 5 5 5 5 5 5 5 4 4 3 3 4 4 4 3 3 4 4 4 3 2 2 3 4 4 3
2 2 2 3 4 5 4 4 5 5 5 5 5 6 5 5 6 5 5 5 5 5 5 5 5 4 3 3 3 4 4 4 3 3 3 3 3 4 2 0 0 1 3 3
1 2 3 2 3 5 5 5 5 5 5 6 5 5 5 5 5 5 5 5 6 5 5 5 5 4 3 4 4 4 4 4 3 3 2 3 3 3 3 3 2 1 2 4
2 2 3 4 3 4 5 5 5 5 5 6 6 6 5 5 5 5 5 6 6 6 6 5 5 4 3 4 4 4 4 3 2 2 2 2 1 1 1 1 1 1 1 1
3 3 5 5 5 5 5 5 5 5 5 6 6 5 5 5 5 6 6 6 6 6 6 6 5 4 4 5 4 4 3 5 4 3 2 2 1 1 1 1 1 1 1 1
4 5 6 6 5 5 4 4 4 4 5 6 6 5 5 6 6 6 5 6 6 6 6 6 5 4 5 5 4 3 3 3 4 3 2 2 1 1 1 1 0 1 0 1
4 4 5 5 4 4 4 4 5 5 5 5 5 5 5 5 5 5 5 6 7 7 7 6 5 5 5 5 4 3 2 2 2 2 2 2 1 1 1 1 1 1 0 0
4 3 4 4 3 3 4 4 5 5 5 6 6 5 5 5 6 6 6 6 6 6 5 5 6 5 5 6 5 3 2 2 2 2 2 2 2 1 1 1 1 1 1 1
3 3 5 4 4 4 4 4 5 5 5 6 6 6 6 6 6 6 7 6 5 4 5 5 4 4 5 6 5 3 3 3 2 2 2 1 1 1 1 1 1 1 2 2
3 4 4 4 4 4 4 4 5 6 6 6 6 6 6 6 6 6 6 6 6 6 5 6 4 5 5 5 4 3 3 3 3 3 2 2 2 2 2 2 2 2 3 3
3 3 4 4 4 4 4 4 5 7 7 6 6 6 7 7 7 7 7 5 5 7 5 4 4 6 5 4 2 3 3 3 3 3 3 3 2 2 3 3 3 3 3 3
3 3 3 4 4 4 5 5 6 6 7 7 7 7 7 6 5 6 5 4 5 6 5 4 5 6 6 3 3 3 4 4 4 3 3 3 3 3 3 3 3 3 3 3
3 3 3 3 4 4 5 5 6 6 7 7 6 7 7 6 5 5 5 7 7 7 4 5 7 6 5 3 3 3 4 3 3 3 3 3 3 3 3 3 3 3 3 4
3 3 3 4 4 4 5 6 7 7 7 6 7 6 6 5 6 5 5 6 7 6 5 5 6 5 3 3 4 4 3 3 3 3 3 3 3 3 3 3 3 3 3 3
3 3 3 3 4 3 4 5 5 5 6 6 5 5 6 6 6 6 5 5 6 5 4 3 3 3 3 4 4 3 3 3 3 3 3 3 3 3 3 3 4 3 3 3
3 4 4 4 4 3 4 5 5 5 5 6 6 5 5 5 5 5 5 4 4 4 3 3 3 3 3 3 3 3 3 3 3 2 2 2 2 2 2 3 2 3 3 3
Wind_Direction
257 254 239 226 226 230 237 243 260 275 265 174 139 158 148 152 156 156 161 164 165 167 171 172 175 178 175 169 168 166 165 170 174 167 157 151 145 150 151 142 144 134 123 116
256 245 242 243 228 227 236 242 247 263 278 108 145 126 146 156 149 147 151 158 162 167 172 176 178 177 173 170 170 166 167 170 169 167 152 151 151 154 147 144 144 128 127 122
267 254 255 252 234 220 221 225 234 247 249 141 136 140 145 141 138 141 142 151 164 170 174 178 178 174 174 173 170 169 170 169 169 166 154 157 159 154 152 157 148 140 143 135
263 259 249 236 211 207 217 232 239 240 234 174 149 126 124 136 147 148 142 147 161 168 167 171 173 168 165 163 167 169 168 168 167 163 157 156 154 155 162 159 152 161 164 151
246 248 254 244 192 199 218 230 228 227 204 172 138 124 123 134 134 137 138 144 152 158 157 161 163 160 158 163 167 165 165 168 164 160 157 160 161 164 165 160 161 173 175 165
246 247 246 228 160 179 230 227 213 227 191 181 175 175 156 132 125 120 120 125 129 132 140 146 148 151 154 165 165 167 166 167 162 159 159 164 168 167 162 161 168 174 180 180
239 244 242 273 157 202 226 162 125 213 156 143 133 109 107 107 104 107 109 112 112 106 100 98 119 132 146 156 162 161 155 155 155 158 162 165 164 161 159 165 173 182 184 188
230 232 221 204 216 223 89 65 77 85 90 100 101 102 103 104 107 110 112 112 114 112 106 94 101 119 129 126 135 132 136 140 146 154 160 162 159 163 166 169 179 188 193 198
223 201 151 180 188 122 97 83 66 64 72 88 109 113 113 112 115 117 120 121 114 113 112 105 103 109 125 122 123 127 131 137 141 145 149 152 157 162 163 169 183 192 192 199
219 181 167 178 141 115 100 91 78 78 87 89 102 112 117 118 117 119 115 113 113 117 114 110 107 107 113 125 141 136 138 144 149 152 150 145 145 156 164 179 187 190 194 201
229 176 157 150 121 123 118 111 99 93 92 94 103 110 114 117 117 115 114 114 118 122 118 114 105 101 103 112 128 130 139 144 145 143 144 143 143 153 165 183 182 186 197 193
230 198 201 167 146 135 137 133 120 108 96 89 98 109 108 110 109 109 113 114 111 107 107 105 104 99 94 97 114 123 129 128 130 136 138 138 136 127 109 146 165 167 163 165
229 197 146 140 139 137 138 133 120 112 110 105 97 97 97 101 104 107 110 112 113 114 111 107 101 95 94 97 106 111 116 123 128 132 136 145 152 160 168 206 239 207 203 202
137 139 150 146 133 140 140 131 121 119 116 112 109 105 100 98 99 103 106 110 110 106 102 102 99 90 87 102 102 101 102 106 112 121 134 155 167 175 175 175 188 240 237 226
224 208 166 138 130 133 134 138 134 130 121 110 103 104 106 108 107 103 98 99 104 103 102 99 91 83 82 98 100 102 102 98 103 114 118 115 111 118 133 155 158 152 125 175
216 188 158 157 157 153 152 153 144 131 125 117 112 112 109 106 101 99 98 99 105 102 98 93 84 76 76 80 84 90 96 94 93 102 104 104 103 99 97 93 88 99 109 118
202 192 179 174 171 164 155 148 138 126 122 121 119 119 118 114 110 108 107 104 101 94 88 86 83 75 77 78 82 83 86 90 91 89 89 94 90 96 102 100 81 75 110 147
228 206 188 178 168 160 153 143 134 128 124 120 120 124 123 124 122 116 111 106 98 89 80 74 69 73 74 69 67 73 86 96 92 95 87 78 67 47 48 59 50 43 8 199
209 184 160 159 163 155 150 145 138 131 128 128 127 124 118 113 111 110 107 102 100 97 84 74 72 74 77 67 61 60 71 85 83 74 73 74 62 42 40 40 33 20 7 6
181 158 150 156 156 152 149 149 141 132 128 126 125 121 115 110 110 111 105 96 88 87 84 76 71 70 71 62 53 53 58 66 72 70 62 66 56 35 28 26 24 11 357 354
154 137 132 136 140 145 152 153 143 135 130 128 130 129 123 115 110 110 108 100 83 77 80 78 71 67 64 54 42 47 57 58 58 60 56 47 37 31 25 25 28 24 13 8
146 140 141 144 146 150 149 144 136 134 133 131 130 127 120 114 107 97 88 94 93 86 82 75 70 68 58 50 48 53 57 57 55 52 49 44 40 33 30 29 25 18 14 13
149 150 150 152 154 148 140 141 138 134 133 133 133 130 125 118 117 117 111 97 98 89 84 80 77 72 63 59 62 64 64 61 59 53 45 43 40 34 31 28 23 17 12 5
154 155 149 145 142 140 140 132 122 118 118 118 119 121 121 117 107 97 104 109 106 103 95 95 88 72 59 63 72 70 65 62 59 53 45 40 36 32 30 27 23 16 10 3
122 125 133 134 134 128 123 119 116 112 113 115 114 110 107 108 113 112 110 110 109 102 97 94 85 73 66 72 71 65 59 57 53 46 46 43 37 32 30 28 22 10 359 352
102 102 104 108 109 111 118 119 119 121 120 115 108 102 100 101 104 106 107 108 103 101 100 100 91 80 71 68 64 59 56 51 52 52 45 40 32 28 22 15 4 358 351 347
97 96 95 98 97 101 109 114 118 118 117 118 113 108 107 106 105 105 104 106 105 99 93 89 86 78 73 70 66 60 56 57 57 51 44 36 27 20 10 359 348 343 348 346
Height
1496 1493 1494 1497 1499 1499 1502 1504 1510 1507 1504 1501 1499 1500 1502 1505 1507 1510 1513 1517 1520 1523 1527 1530 1533 1536 1539 1542 1545 1548 1550 1553 1555 1558 1559 1561 1563 1564 1566 1567 1568 1569 1570 1571
1496 1492 1493 1496 1495 1496 1498 1499 1501 1502 1502 1497 1498 1500 1501 1504 1506 1509 1512 1515 1518 1521 1524 1527 1530 1533 1536 1539 1542 1545 1548 1550 1553 1555 1557 1559 1561 1563 1564 1566 1567 1568 1569 1570
1502 1493 1495 1501 1493 1493 1495 1494 1497 1502 1500 1496 1498 1499 1501 1504 1506 1509 1511 1514 1517 1519 1522 1525 1528 1531 1534 1537 1540 1543 1545 1548 1550 1553 1555 1557 1559 1560 1562 1564 1565 1566 1568 1569
1501 1502 1513 1496 1484 1486 1490 1491 1491 1493 1494 1495 1497 1499 1501 1503 1506 1508 1511 1513 1515 1518 1520 1523 1526 1529 1531 1534 1537 1540 1543 1545 1548 1550 1552 1554 1556 1558 1560 1562 1563 1565 1566 1567
1502 1507 1503 1491 1485 1486 1490 1492 1489 1490 1492 1494 1496 1499 1502 1503 1505 1507 1509 1512 1514 1516 1519 1521 1524 1527 1530 1532 1535 1538 1540 1542 1545 1547 1549 1552 1554 1555 1557 1559 1561 1562 1564 1565
1500 1509 1510 1493 1484 1485 1489 1495 1489 1489 1491 1493 1495 1500 1503 1503 1504 1506 1508 1510 1513 1515 1517 1520 1522 1525 1528 1530 1533 1535 1537 1540 1542 1545 1547 1549 1551 1553 1555 1557 1558 1560 1561 1563
1499 1503 1497 1487 1484 1486 1499 1497 1489 1489 1490 1492 1494 1498 1501 1502 1504 1506 1507 1510 1512 1514 1516 1518 1520 1523 1525 1528 1530 1532 1535 1537 1540 1542 1544 1546 1548 1550 1552 1554 1556 1557 1559 1560
1494 1501 1501 1485 1485 1488 1491 1488 1489 1489 1491 1493 1495 1498 1500 1502 1504 1506 1507 1509 1511 1513 1515 1517 1519 1522 1523 1526 1528 1530 1532 1535 1537 1539 1541 1543 1545 1547 1549 1551 1553 1554 1556 1557
1485 1489 1484 1484 1485 1487 1487 1489 1490 1491 1492 1494 1496 1498 1501 1503 1504 1506 1508 1509 1511 1513 1515 1516 1518 1520 1522 1524 1526 1528 1530 1532 1534 1537 1539 1541 1542 1544 1546 1548 1549 1551 1552 1553
1479 1481 1482 1484 1485 1486 1488 1489 1491 1492 1493 1494 1496 1498 1501 1503 1505 1506 1508 1509 1511 1512 1514 1516 1517 1519 1521 1523 1524 1526 1527 1530 1532 1534 1536 1538 1540 1541 1543 1545 1546 1547 1549 1550
1478 1479 1481 1483 1484 1486 1488 1490 1492 1493 1494 1495 1496 1499 1501 1503 1504 1506 1507 1509 1511 1512 1513 1515 1517 1518 1519 1521 1522 1524 1526 1528 1530 1532 1534 1535 1537 1538 1540 1542 1543 1544 1545 1547
1478 1478 1480 1483 1484 1486 1488 1490 1492 1493 1495 1496 1497 1499 1501 1503 1504 1506 1507 1508 1510 1512 1513 1514 1516 1517 1518 1520 1521 1522 1524 1526 1528 1530 1531 1533 1534 1536 1537 1539 1540 1541 1542 1544
1476 1477 1479 1481 1483 1485 1487 1489 1491 1493 1494 1496 1498 1499 1501 1502 1504 1505 1507 1508 1510 1511 1512 1513 1515 1516 1517 1519 1520 1521 1523 1525 1526 1528 1529 1530 1532 1533 1534 1536 1537 1538 1539 1540
1475 1477 1479 1481 1483 1484 1487 1489 1491 1493 1495 1496 1498 1499 1501 1502 1504 1505 1506 1508 1509 1510 1511 1513 1514 1515 1516 1518 1519 1520 1522 1523 1525 1526 1527 1528 1530 1531 1532 1533 1533 1534 1535 1536
1475 1476 1478 1481 1483 1484 1487 1489 1490 1492 1494 1496 1498 1499 1500 1501 1503 1504 1506 1507 1508 1510 1511 1512 1513 1514 1515 1517 1518 1519 1520 1522 1523 1524 1525 1526 1528 1529 1529 1530 1531 1531 1531 1532
1474 1475 1477 1480 1482 1484 1486 1488 1490 1491 1493 1495 1497 1499 1500 1501 1503 1504 1505 1506 1507 1508 1510 1511 1512 1513 1514 1515 1517 1518 1519 1520 1521 1522 1523 1524 1525 1526 1527 1527 1528 1528 1528 1528
1472 1474 1476 1479 1481 1483 1485 1486 1488 1490 1492 1494 1496 1498 1499 1501 1502 1503 1505 1506 1507 1508 1509 1510 1511 1512 1513 1514 1515 1516 1518 1519 1520 1521 1522 1523 1524 1524 1525 1525 1525 1525 1525 1525
1470 1471 1474 1476 1478 1481 1483 1485 1487 1489 1491 1493 1495 1497 1498 1499 1501 1502 1504 1505 1506 1507 1508 1509 1510 1511 1512 1513 1514 1515 1516 1517 1518 1519 1520 1521 1522 1522 1523 1523 1523 1523 1523 1522
1467 1469 1471 1474 1476 1478 1481 1483 1485 1487 1489 1491 1493 1495 1497 1499 1500 1501 1503 1504 1505 1506 1507 1508 1509 1510 1511 1512 1513 1514 1515 1516 1516 1517 1518 1519 1520 1520 1520 1520 1520 1520 1520 1519
1465 1467 1469 1472 1474 1477 1479 1481 1483 1485 1487 1489 1491 1493 1495 1497 1499 1500 1502 1503 1504 1505 1506 1507 1508 1509 1510 1511 1511 1512 1513 1514 1515 1515 1516 1517 1517 1517 1518 1518 1518 1517 1517 1516
1463 1465 1467 1470 1472 1475 1477 1479 1481 1483 1485 1487 1490 1492 1493 1495 1497 1499 1500 1502 1503 1505 1505 1506 1507 1508 1508 1509 1510 1511 1512 1512 1513 1513 1514 1514 1515 1515 1515 1515 1514 1514 1514 1513
1463 1464 1467 1469 1471 1473 1475 1478 1479 1481 1483 1486 1488 1490 1492 1494 1496 1497 1499 1501 1502 1503 1504 1505 1506 1506 1507 1508 1508 1509 1510 1511 1511 1512 1512 1512 1512 1512 1512 1512 1511 1511 1510 1510
1462 1464 1466 1468 1470 1472 1474 1476 1478 1480 1482 1484 1487 1489 1490 1492 1494 1495 1497 1500 1501 1502 1503 1503 1504 1505 1506 1506 1507 1507 1508 1509 1509 1509 1510 1510 1510 1510 1509 1509 1508 1508 1507 1506
1462 1464 1465 1467 1469 1471 1473 1475 1477 1479 1481 1483 1486 1488 1489 1491 1493 1495 1496 1498 1499 1500 1501 1502 1503 1504 1504 1505 1505 1506 1506 1507 1507 1507 1507 1507 1507 1507 1506 1506 1505 1504 1503 1502
1461 1463 1465 1466 1468 1470 1472 1474 1476 1478 1480 1483 1485 1487 1488 1490 1491 1493 1495 1496 1498 1499 1499 1501 1502 1503 1503 1503 1504 1504 1505 1505 1505 1505 1505 1505 1505 1504 1504 1503 1502 1501 1500 1499
1461 1463 1464 1466 1468 1469 1471 1473 1476 1478 1480 1482 1484 1486 1487 1489 1491 1492 1494 1495 1496 1497 1498 1499 1500 1501 1502 1502 1502 1502 1503 1503 1504 1503 1503 1503 1502 1501 1501 1500 1499 1498 1496 1495
1461 1462 1464 1466 1468 1469 1471 1472 1475 1477 1479 1480 1482 1484 1486 1488 1489 1491 1492 1494 1495 1496 1497 1498 1499 1500 1500 1501 1501 1501 1501 1501 1501 1501 1500 1500 1499 1498 1498 1497 1495 1494 1493 1491